Weather History for Abingdon, VA

Change the Weather History Date:

Tuesday, April 30, 2013

  Actual Average (KTRI) Record (KTRI)
Temperature  
Mean Temperature 66 °F 59 °F  
Max Temperature 78 °F 72 °F 89 °F (1942)
Min Temperature 53 °F 47 °F 30 °F (2008)
Degree Days  
Heating Degree Days 0 6  
Month to date heating degree days 304  
Since 1 July heating degree days 4254  
Cooling Degree Days 0 1  
Month to date cooling degree days 10  
Year to date cooling degree days 11  
Growing Degree Days 16 (Base 50)    
Moisture  
Dew Point 56 °F    
Average Humidity 74    
Maximum Humidity 100    
Minimum Humidity 46    
Precipitation  
Precipitation 0.00 in 0.11 in 0.73 in (1953)
Month to date precipitation 3.33  
Year to date precipitation 13.59  
Snow  
Snow 0.00 in 0.00 in - ()
Month to date snowfall 1.1  
Since 1 July snowfall 13.3  
Snow Depth -    
Sea Level Pressure  
Sea Level Pressure 30.08 in    
Wind  
Wind Speed 4 mph (ESE)    
Max Wind Speed 10 mph    
Max Gust Speed -    
Visibility 10 miles    
Events      
T = Trace of Precipitation, MM = Missing Value Source: NWS Daily Summary

Daily Weather History Graph

Daily Weather History Graph

Search for Another Location

Airport:

Trip Planner

Search our weather history database for the weather conditions in past years. The results will help you decide how hot, cold, wet, or windy it might be!

Date:

Astronomy

Apr. 30, 2013 Rise Set
Actual Time 6:35 AM EDT 8:15 PM EDT
Civil Twilight 6:07 AM EDT 8:43 PM EDT
Nautical Twilight 5:34 AM EDT 9:17 PM EDT
Astronomical Twilight 4:58 AM EDT 9:52 PM EDT
Moon 12:36 AM EDT 11:04 AM EDT
Length of Visible Light 14h 36m
Length of Day
13h 40m
Waning Gibbous, 70% of the Moon is Illuminated
Apr 30
Waning Gibbous
May 2
Last Quarter
May 9
New
May 18
First Quarter
May 25
Full

Hourly Weather History & Observations

Time (EDT) Temp. Dew Point Humidity Pressure Visibility Wind Dir Wind Speed Gust Speed Precip Events Conditions
12:15 AM 57.2 °F 55.0 °F 92% 30.03 in 10.0 mi ENE 3.5 mph - N/A   Overcast
12:35 AM 57.6 °F 54.7 °F 90% 30.03 in 10.0 mi East 3.5 mph - N/A   Mostly Cloudy
12:55 AM 57.2 °F 54.5 °F 91% 30.03 in 10.0 mi Calm Calm - N/A   Overcast
1:15 AM 57.7 °F 54.9 °F 90% 30.03 in 10.0 mi SE 3.5 mph - N/A   Overcast
1:35 AM 56.3 °F 54.7 °F 94% 30.03 in 10.0 mi East 3.5 mph - N/A   Scattered Clouds
1:55 AM 57.2 °F 54.5 °F 91% 30.02 in 10.0 mi Calm Calm - N/A   Mostly Cloudy
2:15 AM 55.8 °F 54.1 °F 94% 30.02 in 10.0 mi Calm Calm - N/A   Scattered Clouds
2:35 AM 56.7 °F 54.5 °F 92% 30.02 in 10.0 mi ENE 4.6 mph - N/A   Scattered Clouds
2:55 AM 55.6 °F 53.6 °F 93% 30.01 in 10.0 mi Calm Calm - N/A   Mostly Cloudy
3:15 AM 53.2 °F 53.2 °F 100% 30.01 in 10.0 mi Calm Calm - N/A   Scattered Clouds
3:35 AM 53.8 °F 53.6 °F 99% 30.02 in 10.0 mi Calm Calm - N/A   Clear
3:55 AM 53.2 °F 52.7 °F 98% 30.02 in 10.0 mi East 4.6 mph - N/A   Clear
4:15 AM 53.6 °F 53.6 °F 100% 30.03 in 10.0 mi Calm Calm - N/A   Clear
4:35 AM 54.7 °F 54.5 °F 99% 30.03 in 10.0 mi East 3.5 mph - N/A   Clear
4:55 AM 55.0 °F 54.5 °F 98% 30.04 in 10.0 mi East 6.9 mph - N/A   Clear
5:15 AM 56.1 °F 55.4 °F 97% 30.05 in 10.0 mi East 5.8 mph - N/A   Clear
5:35 AM 54.5 °F 54.5 °F 100% 30.05 in 10.0 mi East 8.1 mph - N/A   Mostly Cloudy
5:55 AM 55.4 °F 55.4 °F 100% 30.05 in 10.0 mi East 4.6 mph - N/A   Overcast
6:15 AM 54.9 °F 54.1 °F 97% 30.06 in 10.0 mi East 4.6 mph - N/A   Scattered Clouds
6:35 AM 53.6 °F 53.6 °F 100% 30.06 in 10.0 mi East 4.6 mph - N/A   Clear
6:55 AM 53.2 °F 53.2 °F 100% 30.07 in 10.0 mi East 3.5 mph - N/A   Clear
7:15 AM 54.5 °F 54.5 °F 100% 30.08 in 10.0 mi Calm Calm - N/A   Clear
7:35 AM 55.0 °F 55.0 °F 100% 30.09 in 10.0 mi East 6.9 mph - N/A   Clear
7:55 AM 56.7 °F 56.5 °F 99% 30.10 in 10.0 mi East 5.8 mph - N/A   Clear
8:15 AM 58.5 °F 57.0 °F 95% 30.10 in 10.0 mi East 6.9 mph - N/A   Clear
8:35 AM 60.3 °F 57.6 °F 91% 30.11 in 10.0 mi East 9.2 mph - N/A   Clear
8:55 AM 61.5 °F 57.9 °F 88% 30.11 in 10.0 mi East 8.1 mph - N/A   Clear
9:15 AM 63.3 °F 58.3 °F 84% 30.11 in 10.0 mi ESE 9.2 mph - N/A   Clear
9:35 AM 64.6 °F 58.8 °F 82% 30.11 in 10.0 mi ESE 6.9 mph - N/A   Clear
9:55 AM 65.7 °F 59.2 °F 80% 30.11 in 10.0 mi East 8.1 mph - N/A   Clear
10:15 AM 67.1 °F 58.6 °F 74% 30.11 in 10.0 mi ESE 5.8 mph - N/A   Clear
10:35 AM 67.5 °F 58.8 °F 74% 30.11 in 10.0 mi ENE 4.6 mph - N/A   Clear
10:55 AM 68.9 °F 58.8 °F 70% 30.11 in 10.0 mi East 5.8 mph - N/A   Clear
11:15 AM 70.2 °F 59.0 °F 68% 30.11 in 10.0 mi ESE 3.5 mph - N/A   Clear
11:35 AM 69.1 °F 57.4 °F 66% 30.10 in 10.0 mi Calm Calm - N/A   Scattered Clouds
11:55 AM 71.1 °F 58.5 °F 64% 30.10 in 10.0 mi East 5.8 mph - N/A   Scattered Clouds
12:15 PM 72.9 °F 58.1 °F 60% 30.10 in 10.0 mi SSW 3.5 mph - N/A   Scattered Clouds
12:35 PM 73.4 °F 57.4 °F 57% 30.09 in 10.0 mi WSW 4.6 mph - N/A   Scattered Clouds
12:55 PM 72.9 °F 57.0 °F 57% 30.09 in 10.0 mi North 5.8 mph - N/A   Scattered Clouds
1:15 PM 72.5 °F 56.3 °F 57% 30.09 in 10.0 mi Calm Calm - N/A   Mostly Cloudy
1:35 PM 73.8 °F 56.7 °F 55% 30.08 in 10.0 mi Calm Calm - N/A   Scattered Clouds
1:55 PM 75.2 °F 55.6 °F 50% 30.07 in 10.0 mi Calm Calm - N/A   Clear
2:15 PM 76.1 °F 55.8 °F 49% 30.07 in 10.0 mi South 4.6 mph - N/A   Clear
2:35 PM 77.5 °F 55.8 °F 47% 30.07 in 10.0 mi SSW 4.6 mph - N/A   Clear
2:55 PM 77.0 °F 56.5 °F 49% 30.06 in 10.0 mi ESE 5.8 mph - N/A   Scattered Clouds
3:15 PM 77.2 °F 57.4 °F 50% 30.06 in 10.0 mi East 5.8 mph - N/A   Clear
3:35 PM 78.1 °F 56.5 °F 47% 30.06 in 10.0 mi Calm Calm - N/A   Clear
3:55 PM 77.2 °F 56.3 °F 48% 30.05 in 10.0 mi East 8.1 mph - N/A   Mostly Cloudy
4:15 PM 76.5 °F 55.6 °F 48% 30.05 in 10.0 mi Calm Calm - N/A   Scattered Clouds
4:35 PM 76.6 °F 56.3 °F 49% 30.05 in 10.0 mi SSE 5.8 mph - N/A   Scattered Clouds
4:55 PM 78.3 °F 55.9 °F 46% 30.05 in 10.0 mi ESE 8.1 mph - N/A   Mostly Cloudy
5:15 PM 76.1 °F 55.0 °F 48% 30.05 in 10.0 mi SSE 6.9 mph - N/A   Overcast
5:35 PM 75.2 °F 54.1 °F 48% 30.06 in 10.0 mi South 4.6 mph - N/A   Overcast
5:55 PM 75.2 °F 54.1 °F 48% 30.07 in 10.0 mi SSW 3.5 mph - N/A   Scattered Clouds
6:15 PM 75.4 °F 54.5 °F 48% 30.07 in 10.0 mi SSW 6.9 mph - N/A   Scattered Clouds
6:35 PM 74.7 °F 55.4 °F 51% 30.08 in 10.0 mi SSW 6.9 mph - N/A   Mostly Cloudy
6:55 PM 74.3 °F 55.2 °F 51% 30.08 in 10.0 mi South 4.6 mph - N/A   Scattered Clouds
7:15 PM 73.4 °F 55.0 °F 52% 30.09 in 10.0 mi South 4.6 mph - N/A   Scattered Clouds
7:35 PM 72.5 °F 55.2 °F 54% 30.09 in 10.0 mi South 4.6 mph - N/A   Mostly Cloudy
7:55 PM 72.3 °F 54.9 °F 54% 30.10 in 10.0 mi SSE 8.1 mph - N/A   Overcast
8:15 PM 71.6 °F 55.4 °F 57% 30.11 in 10.0 mi South 8.1 mph - N/A   Overcast
8:35 PM 70.5 °F 55.8 °F 59% 30.11 in 10.0 mi SSE 6.9 mph - N/A   Mostly Cloudy
8:55 PM 69.3 °F 55.9 °F 62% 30.12 in 10.0 mi SE 6.9 mph - N/A   Mostly Cloudy
9:15 PM 68.9 °F 56.3 °F 64% 30.13 in 10.0 mi SE 3.5 mph - N/A   Overcast
9:35 PM 68.0 °F 57.2 °F 68% 30.14 in 10.0 mi ESE 9.2 mph - N/A   Overcast
9:55 PM 67.5 °F 56.8 °F 69% 30.16 in 10.0 mi ESE 6.9 mph - N/A   Overcast
10:15 PM 65.8 °F 57.4 °F 74% 30.16 in 10.0 mi ESE 9.2 mph - N/A   Mostly Cloudy
10:35 PM 64.4 °F 57.2 °F 77% 30.16 in 10.0 mi ESE 10.4 mph - N/A   Scattered Clouds
10:55 PM 64.0 °F 57.2 °F 78% 30.17 in 10.0 mi ESE 9.2 mph - N/A   Clear
11:15 PM 63.9 °F 56.8 °F 78% 30.17 in 10.0 mi ESE 9.2 mph - N/A   Clear
11:35 PM 62.4 °F 57.4 °F 84% 30.17 in 10.0 mi East 10.4 mph - N/A   Clear
11:55 PM 62.4 °F 57.2 °F 83% 30.18 in 10.0 mi East 9.2 mph - N/A   Clear